Year,Month,Day,Hour,Minute,Value (Times are PST for temperature in C)
2018,06,12,12,11,14.60
2018,06,12,12,12,14.60
2018,06,12,12,13,14.60
2018,06,12,12,14,14.60
2018,06,12,12,15,14.50
2018,06,12,12,16,14.50
2018,06,12,12,17,14.50
2018,06,12,12,18,14.40
2018,06,12,12,19,14.40
2018,06,12,12,20,14.30
2018,06,12,12,21,14.30
2018,06,12,12,22,14.30
2018,06,12,12,23,14.30
2018,06,12,12,24,14.30
2018,06,12,12,25,14.30
2018,06,12,12,26,14.30
2018,06,12,12,27,14.30
2018,06,12,12,28,14.30
2018,06,12,12,29,14.30
2018,06,12,12,30,14.30
2018,06,12,12,31,14.40
2018,06,12,12,32,14.40
2018,06,12,12,33,14.40
2018,06,12,12,34,14.40
2018,06,12,12,35,14.40
2018,06,12,12,36,14.40
2018,06,12,12,37,14.40
2018,06,12,12,38,14.40
2018,06,12,12,39,14.40
2018,06,12,12,40,14.40
2018,06,12,12,41,14.40
2018,06,12,12,42,14.40
2018,06,12,12,43,14.40
2018,06,12,12,44,14.40
2018,06,12,12,45,14.40
2018,06,12,12,46,14.40
2018,06,12,12,47,14.40
2018,06,12,12,48,14.40
2018,06,12,12,49,14.40
2018,06,12,12,50,14.40
2018,06,12,12,51,14.40
2018,06,12,12,52,14.40
2018,06,12,12,53,14.40
2018,06,12,12,54,14.40
2018,06,12,12,55,14.40
2018,06,12,12,56,14.30
2018,06,12,12,57,14.30
2018,06,12,12,58,14.30
2018,06,12,12,59,14.20
2018,06,12,13,00,14.20
2018,06,12,13,01,14.20
2018,06,12,13,02,14.20
2018,06,12,13,03,14.20
2018,06,12,13,04,14.20
2018,06,12,13,05,14.20
2018,06,12,13,06,14.20
2018,06,12,13,07,14.20
2018,06,12,13,08,14.10
2018,06,12,13,09,14.10
2018,06,12,13,10,14.10
2018,06,12,13,11,14.00
2018,06,12,13,12,14.00
2018,06,12,13,13,13.90
2018,06,12,13,14,13.90
2018,06,12,13,15,14.00
2018,06,12,13,16,14.00
2018,06,12,13,17,13.90
2018,06,12,13,18,13.90
2018,06,12,13,19,13.90
2018,06,12,13,20,13.90
2018,06,12,13,21,13.90
2018,06,12,13,22,13.90
2018,06,12,13,23,14.00
2018,06,12,13,24,14.00
2018,06,12,13,25,14.00
2018,06,12,13,26,14.10
2018,06,12,13,27,14.10
2018,06,12,13,28,14.20
2018,06,12,13,29,14.20
2018,06,12,13,30,14.20
2018,06,12,13,31,14.20
2018,06,12,13,32,14.20
2018,06,12,13,33,14.20
2018,06,12,13,34,14.20
2018,06,12,13,35,14.10
2018,06,12,13,36,14.10
2018,06,12,13,37,14.10
2018,06,12,13,38,14.10
2018,06,12,13,39,14.10
2018,06,12,13,40,14.10
2018,06,12,13,41,14.10
2018,06,12,13,42,14.10
2018,06,12,13,43,14.00
2018,06,12,13,44,14.00
2018,06,12,13,45,14.00
2018,06,12,13,46,14.00
2018,06,12,13,47,14.00
2018,06,12,13,48,14.00
2018,06,12,13,49,14.00
2018,06,12,13,50,14.00
2018,06,12,13,51,14.00
2018,06,12,13,52,14.00
2018,06,12,13,53,14.10
2018,06,12,13,54,14.10
2018,06,12,13,55,14.10
2018,06,12,13,56,14.10
2018,06,12,13,57,14.10
2018,06,12,13,58,14.10
2018,06,12,13,59,14.10
2018,06,12,14,00,14.10
2018,06,12,14,01,14.20
2018,06,12,14,02,14.20
2018,06,12,14,03,14.20
2018,06,12,14,04,14.20
2018,06,12,14,05,14.20
2018,06,12,14,06,14.20
2018,06,12,14,07,14.20
2018,06,12,14,08,14.20
2018,06,12,14,09,14.30
2018,06,12,14,10,14.30
2018,06,12,14,11,14.30
2018,06,12,14,12,14.30
2018,06,12,14,13,14.20
2018,06,12,14,14,14.20
2018,06,12,14,15,14.20
2018,06,12,14,16,14.20
2018,06,12,14,17,14.10
2018,06,12,14,18,14.10
2018,06,12,14,19,14.10
2018,06,12,14,20,14.10
2018,06,12,14,21,14.10
2018,06,12,14,22,14.10
2018,06,12,14,23,14.10
2018,06,12,14,24,14.10
2018,06,12,14,25,14.10
2018,06,12,14,26,14.10
2018,06,12,14,27,14.00
2018,06,12,14,28,14.00
2018,06,12,14,29,14.00
2018,06,12,14,30,14.00
2018,06,12,14,31,14.00
2018,06,12,14,32,14.00
2018,06,12,14,33,14.00
2018,06,12,14,34,14.00
2018,06,12,14,35,14.00
2018,06,12,14,36,14.10
2018,06,12,14,37,14.10
2018,06,12,14,38,14.10
2018,06,12,14,39,14.10
2018,06,12,14,40,14.10
2018,06,12,14,41,14.10
2018,06,12,14,42,14.10
2018,06,12,14,43,14.10
2018,06,12,14,44,14.20
2018,06,12,14,45,14.20
2018,06,12,14,46,14.20
2018,06,12,14,47,14.20
2018,06,12,14,48,14.20
2018,06,12,14,49,14.20
2018,06,12,14,50,14.20
2018,06,12,14,51,14.20
2018,06,12,14,52,14.20
2018,06,12,14,53,14.10
2018,06,12,14,54,14.10
2018,06,12,14,55,14.10
2018,06,12,14,56,14.10
2018,06,12,14,57,14.10
2018,06,12,14,58,14.10
2018,06,12,14,59,14.10
2018,06,12,15,00,14.10
2018,06,12,15,01,14.10
2018,06,12,15,02,14.20
2018,06,12,15,03,14.20
2018,06,12,15,04,14.30
2018,06,12,15,05,14.30
2018,06,12,15,06,14.40
2018,06,12,15,07,14.40
2018,06,12,15,08,14.40
2018,06,12,15,09,14.40
2018,06,12,15,10,14.40
2018,06,12,15,11,14.40
2018,06,12,15,12,14.30
2018,06,12,15,13,14.30
2018,06,12,15,14,14.30
2018,06,12,15,15,14.20
2018,06,12,15,16,14.20
2018,06,12,15,17,14.20
2018,06,12,15,18,14.20
2018,06,12,15,19,14.20
2018,06,12,15,20,14.20
2018,06,12,15,21,14.20
2018,06,12,15,22,14.20
2018,06,12,15,23,14.20
2018,06,12,15,24,14.20
2018,06,12,15,25,14.20
2018,06,12,15,26,14.20
2018,06,12,15,27,14.20
2018,06,12,15,28,14.20
2018,06,12,15,29,14.20
2018,06,12,15,30,14.20
2018,06,12,15,31,14.20
2018,06,12,15,32,14.20
2018,06,12,15,33,14.20
2018,06,12,15,34,14.10
2018,06,12,15,35,14.10
2018,06,12,15,36,14.20
2018,06,12,15,37,14.20
2018,06,12,15,38,14.20
2018,06,12,15,39,14.20
2018,06,12,15,40,14.20
2018,06,12,15,41,14.20
2018,06,12,15,42,14.20
2018,06,12,15,43,14.20
2018,06,12,15,44,14.20
2018,06,12,15,45,14.30
2018,06,12,15,46,14.30
2018,06,12,15,47,14.30
2018,06,12,15,48,14.40
2018,06,12,15,49,14.40
2018,06,12,15,50,14.40
2018,06,12,15,51,14.30
2018,06,12,15,52,14.30
2018,06,12,15,53,14.30
2018,06,12,15,54,14.30
2018,06,12,15,55,14.40
2018,06,12,15,56,14.40
2018,06,12,15,57,14.40
2018,06,12,15,58,14.40
2018,06,12,15,59,14.40
2018,06,12,16,00,14.40
2018,06,12,16,01,14.40
2018,06,12,16,02,14.40
2018,06,12,16,03,14.40
2018,06,12,16,04,14.40
2018,06,12,16,05,14.50
2018,06,12,16,06,14.50
2018,06,12,16,07,14.50
2018,06,12,16,08,14.50
2018,06,12,16,09,14.50
2018,06,12,16,10,14.60
2018,06,12,16,11,14.60
2018,06,12,16,12,14.60
2018,06,12,16,13,14.60
2018,06,12,16,14,14.60
2018,06,12,16,15,14.60
2018,06,12,16,16,14.60
2018,06,12,16,17,14.60
2018,06,12,16,18,14.60
2018,06,12,16,19,14.70
2018,06,12,16,20,14.70
2018,06,12,16,21,14.70
2018,06,12,16,22,14.70
2018,06,12,16,23,14.70
2018,06,12,16,24,14.80
2018,06,12,16,25,14.80
2018,06,12,16,26,14.80
2018,06,12,16,27,14.80
2018,06,12,16,28,14.80
2018,06,12,16,29,14.80
2018,06,12,16,30,14.90
2018,06,12,16,31,14.90
2018,06,12,16,32,14.90
2018,06,12,16,33,14.90
2018,06,12,16,34,14.90
2018,06,12,16,35,14.90
2018,06,12,16,36,14.90
2018,06,12,16,37,14.90
2018,06,12,16,38,14.90
2018,06,12,16,39,14.90
2018,06,12,16,40,14.90
2018,06,12,16,41,14.90
2018,06,12,16,42,14.90
2018,06,12,16,43,14.90
2018,06,12,16,44,15.00
2018,06,12,16,45,15.00
2018,06,12,16,46,15.10
2018,06,12,16,47,15.10
2018,06,12,16,48,15.00
2018,06,12,16,49,15.00
2018,06,12,16,50,15.00
2018,06,12,16,51,14.90
2018,06,12,16,52,14.90
2018,06,12,16,53,14.90
2018,06,12,16,54,14.90
2018,06,12,16,55,14.90
2018,06,12,16,56,14.90
2018,06,12,16,57,14.90
2018,06,12,16,58,15.00
2018,06,12,16,59,15.00
2018,06,12,17,00,15.00
2018,06,12,17,01,15.10
2018,06,12,17,02,15.10
2018,06,12,17,03,15.10
2018,06,12,17,04,15.10
2018,06,12,17,05,15.20
2018,06,12,17,06,15.20
2018,06,12,17,07,15.20
2018,06,12,17,08,15.20
2018,06,12,17,09,15.20
2018,06,12,17,10,15.20
2018,06,12,17,11,15.20
2018,06,12,17,12,15.10
2018,06,12,17,13,15.10
2018,06,12,17,14,15.10
2018,06,12,17,15,15.10
2018,06,12,17,16,15.10
2018,06,12,17,17,15.10
2018,06,12,17,18,15.10
2018,06,12,17,19,15.10
2018,06,12,17,20,15.10
2018,06,12,17,21,15.10
2018,06,12,17,22,15.10
2018,06,12,17,23,15.10
2018,06,12,17,24,15.10
2018,06,12,17,25,15.10
2018,06,12,17,26,15.10
2018,06,12,17,27,15.10
2018,06,12,17,28,15.10
2018,06,12,17,29,15.10
2018,06,12,17,30,15.10
2018,06,12,17,31,15.00
2018,06,12,17,32,15.00
2018,06,12,17,33,15.00
2018,06,12,17,34,15.00
2018,06,12,17,35,15.00
2018,06,12,17,36,15.00
2018,06,12,17,37,15.00
2018,06,12,17,38,15.00
2018,06,12,17,39,15.00
2018,06,12,17,40,15.00
2018,06,12,17,41,14.90
2018,06,12,17,42,14.90
2018,06,12,17,43,14.90
2018,06,12,17,44,14.80
2018,06,12,17,45,14.80
2018,06,12,17,46,14.80
2018,06,12,17,47,14.80
2018,06,12,17,48,14.80
2018,06,12,17,49,14.80
2018,06,12,17,50,14.80
2018,06,12,17,51,14.80
2018,06,12,17,52,14.80
2018,06,12,17,53,14.80
2018,06,12,17,54,14.80
2018,06,12,17,55,14.80
2018,06,12,17,56,14.80
2018,06,12,17,57,14.80
2018,06,12,17,58,14.70
2018,06,12,17,59,14.70
2018,06,12,18,00,14.70
2018,06,12,18,01,14.60
2018,06,12,18,02,14.60
2018,06,12,18,03,14.60
2018,06,12,18,04,14.60
2018,06,12,18,05,14.50
2018,06,12,18,06,14.50
2018,06,12,18,07,14.50
2018,06,12,18,08,14.50
2018,06,12,18,09,14.50
2018,06,12,18,10,14.50
2018,06,12,18,11,14.50
2018,06,12,18,12,14.50
2018,06,12,18,13,14.40
2018,06,12,18,14,14.40
2018,06,12,18,15,14.40
2018,06,12,18,16,14.40
2018,06,12,18,17,14.40
2018,06,12,18,18,14.40
2018,06,12,18,19,14.40
2018,06,12,18,20,14.40
2018,06,12,18,21,14.40
2018,06,12,18,22,14.40
